CW1855 Weather Reports


Display with metric or nautical units.
time (UTC)temp
F
wind
direction
speed
MPH
gust
MPH
rain 1hr
in
rain 24hr
in
rain mn
in
humidity
%
barometer
mb
20180921073204 49 47 0.0 0.0 0.00 0.00 0.00 54 605.6
20180921072205 49 47 0.0 0.0 0.00 0.00 0.00 52 605.6
20180921071705 49 47 0.0 0.0 0.00 0.00 0.00 52 605.6
20180921070704 49 47 0.0 0.0 0.00 0.00 0.00 53 605.6
20180921070204 49 47 0.0 0.0 0.00 0.00 0.00 52 605.6
20180921065204 49 47 0.0 0.0 0.00 0.00 0.00 51 605.6
20180921064704 49 47 0.0 0.0 0.00 0.00 0.00 50 605.6
20180921063704 49 47 0.0 0.0 0.00 0.00 0.00 51 605.6
20180921062204 50 47 0.0 0.0 0.00 0.00 0.00 47 605.6
20180921061705 50 47 0.0 0.0 0.00 0.00 0.00 46 605.6
20180921060705 51 47 0.0 0.0 0.00 0.00 0.00 47 605.6
20180921060204 52 47 0.0 0.0 0.00 0.00 0.00 47 605.6
20180921055205 52 47 0.0 0.0 0.00 0.00 0.00 47 605.6
20180921054705 52 47 0.0 0.0 0.00 0.00 0.00 47 605.6
20180921054204 52 47 0.0 0.0 0.00 0.00 0.00 46 605.6
20180921053704 52 47 0.0 0.0 0.00 0.00 0.00 46 605.6
20180921053205 51 47 0.0 0.0 0.00 0.00 0.00 45 605.6
20180921052205 52 47 0.0 0.0 0.00 0.00 0.00 45 605.6
20180921050705 52 47 0.0 0.0 0.00 0.00 0.00 42 605.6
20180921045704 53 47 0.0 0.0 0.00 0.00 0.00 42 605.6
20180921045204 53 47 0.0 0.0 0.00 0.00 0.00 42 605.6
20180921044704 54 47 0.0 0.0 0.00 0.00 0.00 43 605.6
20180921044205 54 42 0.0 0.0 0.00 0.00 0.00 44 605.6
20180921043705 54 33 0.0 0.0 0.00 0.00 0.00 43 605.6
20180921043205 53 33 0.0 0.0 0.00 0.00 0.00 42 605.6
20180921040204 55 33 0.0 0.0 0.00 0.00 0.00 39 605.6
20180921035205 55 33 0.0 0.0 0.00 0.00 0.00 40 605.6
20180921034705 55 33 0.0 0.0 0.00 0.00 0.00 39 605.6
20180921033704 55 33 0.0 0.0 0.00 0.00 0.00 37 605.6
20180921033205 56 33 0.0 0.0 0.00 0.00 0.00 37 605.6
20180921032705 56 33 0.0 0.0 0.00 0.00 0.00 36 605.6
20180921032204 56 33 0.0 0.0 0.00 0.00 0.00 36 605.6
20180921030205 56 33 0.0 0.0 0.00 0.00 0.00 35 605.6
20180921025204 57 33 0.0 0.0 0.00 0.00 0.00 29 605.6
20180921024704 57 33 0.0 0.0 0.00 0.00 0.00 27 605.6
20180921024205 58 33 0.0 0.0 0.00 0.00 0.00 27 605.6
20180921023704 58 33 0.0 0.0 0.00 0.00 0.00 26 605.6
20180921023205 59 33 0.0 0.0 0.00 0.00 0.00 25 605.6
20180921021705 61 33 0.0 0.0 0.00 0.00 0.00 24 605.6
20180921020704 62 33 0.0 0.0 0.00 0.00 0.00 24 605.6
20180921020205 63 33 0.0 0.0 0.00 0.00 0.00 23 605.6
20180921014704 66 33 0.0 0.0 0.00 0.00 0.00 18 605.6
20180921014204 66 33 0.0 0.0 0.00 0.00 0.00 17 605.6
20180921013704 66 33 0.0 0.0 0.00 0.00 0.00 17 605.6
20180921013205 67 33 0.0 0.0 0.00 0.00 0.00 17 605.6
20180921010705 76 18 3.0 0.0 0.00 0.00 0.00 15 605.6
20180921010205 78 283 0.0 0.0 0.00 0.00 0.00 15 605.6
20180921004204 78 22 0.0 0.0 0.00 0.00 0.00 15 605.6
20180921003704 78 23 4.0 0.0 0.00 0.00 0.00 15 605.6
20180921002705 78 39 0.0 0.0 0.00 0.00 0.00 15 605.6
20180921002205 78 18 3.0 0.0 0.00 0.00 0.00 15 605.6
20180921001204 79 22 4.0 0.0 0.00 0.00 0.00 15 605.6
20180921000704 79 24 2.0 0.0 0.00 0.00 0.00 15 605.6
20180921000205 78 19 0.0 0.0 0.00 0.00 0.00 15 605.6
20180920235705 79 27 5.0 0.0 0.00 0.00 0.00 15 605.6
20180920235204 83 284 4.0 0.0 0.00 0.00 0.00 14 605.6
20180920233705 81 24 4.0 0.0 0.00 0.00 0.00 14 605.6
20180920232704 79 19 3.0 0.0 0.00 0.00 0.00 15 605.6
20180920232204 80 21 2.0 0.0 0.00 0.00 0.00 15 605.6
20180920231205 79 19 4.0 0.0 0.00 0.00 0.00 15 605.6
20180920230704 78 26 4.0 0.0 0.00 0.00 0.00 15 605.6
20180920225205 86 294 3.0 0.0 0.00 0.00 0.00 13 605.6
20180920224704 85 38 4.0 0.0 0.00 0.00 0.00 13 605.6
20180920223205 82 38 4.0 0.0 0.00 0.00 0.00 14 605.6
20180920222205 83 259 0.0 0.0 0.00 0.00 0.00 14 605.6
20180920221704 81 23 3.0 0.0 0.00 0.00 0.00 14 605.6
20180920220705 80 29 4.0 0.0 0.00 0.00 0.00 15 605.6
20180920215204 85 35 4.0 0.0 0.00 0.00 0.00 13 605.6
20180920214204 84 55 0.0 0.0 0.00 0.00 0.00 14 605.6
20180920213705 81 31 4.0 0.0 0.00 0.00 0.00 14 605.6
20180920213204 79 26 4.0 0.0 0.00 0.00 0.00 15 605.6
20180920212705 79 30 7.0 0.0 0.00 0.00 0.00 15 605.6
20180920212204 76 122 4.0 0.0 0.00 0.00 0.00 15 605.6
20180920211705 81 24 2.0 0.0 0.00 0.00 0.00 14 605.6
20180920211205 83 52 0.0 0.0 0.00 0.00 0.00 14 605.6
20180920210705 85 271 4.0 0.0 0.00 0.00 0.00 13 605.6
20180920205204 84 27 3.0 0.0 0.00 0.00 0.00 14 605.6
20180920204704 86 264 2.0 0.0 0.00 0.00 0.00 13 605.6
20180920203705 86 13 0.0 0.0 0.00 0.00 0.00 13 605.6
20180920203205 82 13 3.0 0.0 0.00 0.00 0.00 14 605.6
20180920195704 82 24 4.0 0.0 0.00 0.00 0.00 14 605.6
20180920195204 78 70 3.0 0.0 0.00 0.00 0.00 15 605.6
20180920194705 80 283 4.0 0.0 0.00 0.00 0.00 15 605.6
20180920194205 77 16 5.0 0.0 0.00 0.00 0.00 15 605.6
20180920192704 74 1 2.0 0.0 0.00 0.00 0.00 16 605.6
20180920192206 77 20 4.0 0.0 0.00 0.00 0.00 15 605.6
20180920191205 83 301 4.0 0.0 0.00 0.00 0.00 14 605.6
20180920190205 85 28 3.0 0.0 0.00 0.00 0.00 13 605.6
20180920185705 83 12 0.0 0.0 0.00 0.00 0.00 14 605.6
20180920185204 80 23 3.0 0.0 0.00 0.00 0.00 15 605.6
20180920184704 70 40 0.0 0.0 0.00 0.00 0.00 19 605.6
20180920184204 73 292 4.0 0.0 0.00 0.00 0.00 16 605.6
20180920183705 84 308 2.0 0.0 0.00 0.00 0.00 13 605.6
20180920182705 85 32 4.0 0.0 0.00 0.00 0.00 13 605.6
20180920182204 86 167 3.0 0.0 0.00 0.00 0.00 13 605.6
20180920181704 86 309 0.0 0.0 0.00 0.00 0.00 13 605.6
20180920181205 83 292 0.0 0.0 0.00 0.00 0.00 14 605.6
20180920180705 82 278 3.0 0.0 0.00 0.00 0.00 14 605.6
20180920180204 78 19 0.0 0.0 0.00 0.00 0.00 15 605.6
20180920174705 77 56 4.0 0.0 0.00 0.00 0.00 15 605.6
20180920173705 75 95 0.0 0.0 0.00 0.00 0.00 16 605.6
20180920173204 76 33 3.0 0.0 0.00 0.00 0.00 15 605.6
20180920172205 74 135 0.0 0.0 0.00 0.00 0.00 18 605.6
20180920170205 70 62 3.0 0.0 0.00 0.00 0.00 23 605.6
20180920165205 66 109 4.0 0.0 0.00 0.00 0.00 25 605.6
20180920164705 66 56 2.0 0.0 0.00 0.00 0.00 25 605.6
20180920164204 66 180 0.0 0.0 0.00 0.00 0.00 30 605.6
20180920162705 64 167 2.0 0.0 0.00 0.00 0.00 32 605.6
20180920162204 64 153 0.0 0.0 0.00 0.00 0.00 35 605.6
20180920161705 64 153 0.0 0.0 0.00 0.00 0.00 41 605.6
20180920161205 65 149 0.0 0.0 0.00 0.00 0.00 41 605.6
20180920160204 66 120 0.0 0.0 0.00 0.00 0.00 44 605.6
20180920153704 66 120 0.0 0.0 0.00 0.00 0.00 48 605.6
20180920152205 64 120 0.0 0.0 0.00 0.00 0.00 47 605.6
20180920150705 57 120 0.0 0.0 0.00 0.00 0.00 57 605.6
20180920145705 54 120 0.0 0.0 0.00 0.00 0.00 84 605.6
20180920144705 52 120 0.0 0.0 0.00 0.00 0.00 83 605.6
20180920143205 46 120 0.0 0.0 0.00 0.00 0.00 86 605.6
20180920142704 46 120 0.0 0.0 0.00 0.00 0.00 86 605.6
20180920142205 46 120 0.0 0.0 0.00 0.00 0.00 87 605.6
20180920141205 45 120 0.0 0.0 0.00 0.00 0.00 87 605.6
20180920140705 44 120 0.0 0.0 0.00 0.00 0.00 87 605.6
20180920140205 45 120 0.0 0.0 0.00 0.00 0.00 87 605.6
20180920135705 45 120 0.0 0.0 0.00 0.00 0.00 88 605.6
20180920134705 46 120 0.0 0.0 0.00 0.00 0.00 89 605.6
20180920134205 47 120 0.0 0.0 0.00 0.00 0.00 89 605.6
20180920131705 47 120 0.0 0.0 0.00 0.00 0.00 80 605.6
20180920130705 46 70 0.0 0.0 0.00 0.00 0.00 69 605.6
20180920130205 45 19 0.0 0.0 0.00 0.00 0.00 68 605.6
20180920124705 46 19 0.0 0.0 0.00 0.00 0.00 67 605.6
20180920123705 46 19 0.0 0.0 0.00 0.00 0.00 67 605.6
20180920123205 46 19 0.0 0.0 0.00 0.00 0.00 68 605.6
20180920122205 46 19 0.0 0.0 0.00 0.00 0.00 66 605.6
20180920115204 47 19 0.0 0.0 0.00 0.00 0.00 58 605.6
20180920114705 47 19 0.0 0.0 0.00 0.00 0.00 61 605.6
20180920114205 47 19 0.0 0.0 0.00 0.00 0.00 59 605.6
20180920113204 47 19 0.0 0.0 0.00 0.00 0.00 59 605.6
20180920112705 48 19 0.0 0.0 0.00 0.00 0.00 61 605.6
20180920112205 48 19 0.0 0.0 0.00 0.00 0.00 65 605.6
20180920110704 48 19 0.0 0.0 0.00 0.00 0.00 60 605.6
20180920110205 48 19 0.0 0.0 0.00 0.00 0.00 57 605.6
20180920105704 48 19 0.0 0.0 0.00 0.00 0.00 56 605.6
20180920105204 48 19 0.0 0.0 0.00 0.00 0.00 56 605.6
20180920104705 49 19 0.0 0.0 0.00 0.00 0.00 56 605.6
20180920104205 49 19 0.0 0.0 0.00 0.00 0.00 59 605.6
20180920103704 49 19 0.0 0.0 0.00 0.00 0.00 57 605.6
20180920102704 49 19 0.0 0.0 0.00 0.00 0.00 56 605.6
20180920101205 50 19 0.0 0.0 0.00 0.00 0.00 51 605.6
20180920100704 50 19 0.0 0.0 0.00 0.00 0.00 49 605.6
20180920095204 51 19 0.0 0.0 0.00 0.00 0.00 48 605.6
20180920094204 51 19 0.0 0.0 0.00 0.00 0.00 47 605.6
20180920093704 52 19 0.0 0.0 0.00 0.00 0.00 47 605.6
20180920093205 52 19 0.0 0.0 0.00 0.00 0.00 46 605.6
20180920091204 54 19 0.0 0.0 0.00 0.00 0.00 45 605.6
20180920090204 55 19 0.0 0.0 0.00 0.00 0.00 44 605.6
20180920085704 55 19 0.0 0.0 0.00 0.00 0.00 44 605.6
20180920085204 55 19 0.0 0.0 0.00 0.00 0.00 44 605.6
20180920084705 56 19 0.0 0.0 0.00 0.00 0.00 44 605.6
20180920084204 56 19 0.0 0.0 0.00 0.00 0.00 44 605.6
20180920082205 57 19 0.0 0.0 0.00 0.00 0.00 42 605.6
20180920080705 58 19 0.0 0.0 0.00 0.00 0.00 43 605.6
20180920075705 58 19 0.0 0.0 0.00 0.00 0.00 42 605.6
20180920074704 58 19 2.0 0.0 0.00 0.00 0.00 42 605.6
20180920073704 58 19 0.0 0.0 0.00 0.00 0.00 43 605.6